Location: Vysna Sitnica
(49.0952°N, 21.7906°E)
Time: 08:53:25
(UTC+01:00)

ISS - Pass Details

Date: 01 December 2023
Orbit: 414 x 422 km, 51.6° (Epoch: 28 February)

Event Time Altitude Azimuth Distance (km) Brightness Sun altitude
Rises 18:18:55 0° 288° (WNW) 2,418 1.2 -25.5°
Reaches altitude 10° 18:21:12 10° 277° (W) 1,551 0.1 -25.9°
Enters shadow 18:23:39 27° 236° (SW) 881 -1.7 -26.3°
